Lapeer, MI

3:37 PM EDT on August 18, 2017 (GMT -0400)
Lapeer

Weather History for KD95 - January, 2013

Change the Weather History Date:

Wednesday, January 2, 2013

  Actual Average (KFNT) Record (KFNT)
Temperature  
Mean Temperature 20 °F -  
Max Temperature 24 °F 31 °F 57 °F (2004)
Min Temperature 16 °F 17 °F -12 °F (2001)
Degree Days  
Heating Degree Days 45    
Moisture  
Dew Point 14 °F    
Average Humidity 76    
Maximum Humidity 82    
Minimum Humidity 72    
Precipitation  
Precipitation 0.00 in - - ()
Sea Level Pressure  
Sea Level Pressure 30.10 in    
Wind  
Wind Speed 7 mph (West)    
Max Wind Speed 10 mph    
Max Gust Speed 18 mph    
Visibility 10 miles    
Events Snow    
Averages and records for this station are not official NWS values.
T = Trace of Precipitation, MM = Missing Value Source: NWS Daily Summary

Daily Weather History Graph

Daily Weather History Graph

Search for Another Location

Airport or City:

Trip Planner

Search our weather history database for the weather conditions in past years. The results will help you decide how hot, cold, wet, or windy it might be!

Date:

Astronomy

Jan. 02, 2013 Rise Set
Actual Time 8:04 AM EST 5:10 PM EST
Civil Twilight 7:32 AM EST 5:42 PM EST
Nautical Twilight 6:56 AM EST 6:18 PM EST
Astronomical Twilight 6:22 AM EST 6:52 PM EST
Moon 10:50 PM EST (1/2) 10:37 AM EST (1/2)
Length of Visible Light 10h 09m
Length of Day
9h 05m
Waning Gibbous, 75% of the Moon is Illuminated
Jan 2
Waning Gibbous
Jan 4
Last Quarter
Jan 11
New
Jan 18
First Quarter
Jan 26
Full

Hourly Weather History & Observations

Time (EST) Temp. Windchill Dew Point Humidity Pressure Visibility Wind Dir Wind Speed Gust Speed Precip Events Conditions
12:12 AM 18.1 °F 7.1 °F 11.1 °F 74% 30.03 in 10.0 mi West 9.2 mph - N/A   Overcast
12:33 AM 18.0 °F 7.7 °F 11.3 °F 75% 30.03 in 10.0 mi West 8.1 mph - N/A   Overcast
12:53 AM 17.8 °F 8.5 °F 11.1 °F 75% 30.03 in 10.0 mi West 6.9 mph 16.1 mph N/A   Overcast
1:12 AM 17.4 °F 5.4 °F 10.4 °F 74% 30.03 in 10.0 mi West 10.4 mph 18.4 mph N/A   Overcast
1:33 AM 17.2 °F 8.9 °F 10.4 °F 75% 30.04 in 10.0 mi West 5.8 mph - N/A   Overcast
1:53 AM 16.7 °F 6.2 °F 10.2 °F 76% 30.03 in 10.0 mi WNW 8.1 mph 16.1 mph N/A   Overcast
2:12 AM 16.7 °F 4.5 °F 10.2 °F 76% 30.03 in 10.0 mi West 10.4 mph - N/A   Overcast
2:33 AM 16.5 °F 6.0 °F 10.0 °F 76% 30.03 in 10.0 mi West 8.1 mph - N/A   Overcast
2:53 AM 16.7 °F 7.2 °F 10.2 °F 76% 30.04 in 10.0 mi West 6.9 mph - N/A   Overcast
3:12 AM 16.7 °F 6.2 °F 10.2 °F 76% 30.04 in 10.0 mi West 8.1 mph - N/A   Overcast
3:33 AM 16.7 °F 7.2 °F 10.2 °F 76% 30.05 in 10.0 mi West 6.9 mph - N/A   Overcast
3:53 AM 16.7 °F 4.5 °F 10.0 °F 75% 30.05 in 10.0 mi West 10.4 mph 16.1 mph N/A   Overcast
4:33 AM 16.9 °F 6.4 °F 10.4 °F 76% 30.07 in 10.0 mi West 8.1 mph 17.3 mph N/A   Overcast
4:53 AM 16.7 °F 7.2 °F 10.4 °F 76% 30.07 in 10.0 mi West 6.9 mph - N/A   Overcast
5:13 AM 17.1 °F 6.6 °F 10.4 °F 75% 30.07 in 10.0 mi West 8.1 mph - N/A   Overcast
5:33 AM 17.1 °F 8.7 °F 10.4 °F 75% 30.06 in 10.0 mi West 5.8 mph - N/A   Overcast
5:53 AM 17.1 °F 6.6 °F 10.8 °F 76% 30.06 in 10.0 mi West 8.1 mph - N/A   Overcast
6:13 AM 17.4 °F 8.0 °F 10.8 °F 75% 30.07 in 10.0 mi West 6.9 mph - N/A   Overcast
6:33 AM 17.4 °F 6.2 °F 10.9 °F 76% 30.07 in 10.0 mi WNW 9.2 mph - N/A   Overcast
6:52 AM 17.4 °F 6.2 °F 10.9 °F 76% 30.08 in 10.0 mi West 9.2 mph - N/A   Overcast
7:13 AM 17.6 °F 8.2 °F 11.3 °F 76% 30.08 in 10.0 mi West 6.9 mph - N/A   Overcast
7:33 AM 18.1 °F 8.9 °F 11.7 °F 76% 30.08 in 10.0 mi West 6.9 mph - N/A   Overcast
7:53 AM 18.3 °F 8.2 °F 12.0 °F 76% 30.09 in 10.0 mi West 8.1 mph - N/A Snow Light Snow
8:13 AM 18.5 °F 8.4 °F 12.2 °F 76% 30.09 in 10.0 mi West 8.1 mph - N/A Snow Light Snow
8:33 AM 18.9 °F 9.8 °F 12.6 °F 76% 30.09 in 10.0 mi WNW 6.9 mph - N/A   Overcast
8:52 AM 19.2 °F 11.3 °F 12.9 °F 76% 30.09 in 10.0 mi WNW 5.8 mph - N/A   Overcast
9:13 AM 19.2 °F 12.5 °F 13.1 °F 77% 30.10 in 10.0 mi WNW 4.6 mph - N/A Snow Light Snow
9:33 AM 19.4 °F 12.8 °F 13.5 °F 78% 30.10 in 10.0 mi NW 4.6 mph - N/A Snow Light Snow
9:52 AM 19.9 °F 13.4 °F 13.5 °F 76% 30.11 in 10.0 mi WNW 4.6 mph - N/A Snow Light Snow
10:13 AM 20.1 °F 12.3 °F 13.6 °F 76% 30.11 in 7.0 mi WNW 5.8 mph - N/A Snow Light Snow
10:33 AM 20.3 °F 12.5 °F 13.8 °F 76% 30.13 in 10.0 mi WNW 5.8 mph - N/A Snow Light Snow
10:52 AM 20.8 °F 12.1 °F 14.0 °F 75% 30.14 in 10.0 mi West 6.9 mph - N/A Snow Light Snow
11:13 AM 21.0 °F 11.4 °F 14.5 °F 76% 30.14 in 7.0 mi WNW 8.1 mph - N/A Snow Light Snow
11:33 AM 21.2 °F 12.6 °F 14.4 °F 75% 30.14 in 7.0 mi West 6.9 mph - N/A Snow Light Snow
11:52 AM 21.4 °F 11.9 °F 14.5 °F 75% 30.14 in 7.0 mi West 8.1 mph - N/A Snow Light Snow
12:13 PM 21.7 °F 14.3 °F 14.9 °F 75% 30.13 in 7.0 mi West 5.8 mph - N/A Snow Light Snow
12:33 PM 22.1 °F 15.9 °F 15.3 °F 75% 30.13 in 7.0 mi NW 4.6 mph - N/A Snow Light Snow
12:52 PM 22.1 °F 14.7 °F 15.3 °F 75% 30.12 in 10.0 mi WNW 5.8 mph - N/A Snow Light Snow
1:13 PM 22.3 °F 13.0 °F 14.9 °F 73% 30.12 in 10.0 mi West 8.1 mph - N/A Snow Light Snow
1:33 PM 22.5 °F 12.4 °F 15.6 °F 75% 30.11 in 10.0 mi WSW 9.2 mph - N/A Snow Light Snow
1:52 PM 22.6 °F 14.3 °F 14.9 °F 72% 30.12 in 10.0 mi West 6.9 mph - N/A Snow Light Snow
2:13 PM 22.8 °F 12.9 °F 14.9 °F 72% 30.12 in 10.0 mi WSW 9.2 mph - N/A Snow Light Snow
2:33 PM 22.6 °F 14.3 °F 14.9 °F 72% 30.12 in 10.0 mi West 6.9 mph - N/A Snow Light Snow
2:52 PM 22.8 °F 15.5 °F 15.4 °F 73% 30.12 in 10.0 mi WNW 5.8 mph - N/A Snow Light Snow
3:13 PM 23.0 °F 18.4 °F 15.6 °F 73% 30.12 in 10.0 mi WNW 3.5 mph - N/A Snow Light Snow
3:33 PM 23.0 °F 17.0 °F 15.3 °F 72% 30.12 in 10.0 mi West 4.6 mph - N/A Snow Light Snow
3:52 PM 23.0 °F 17.0 °F 15.3 °F 72% 30.12 in 10.0 mi West 4.6 mph - N/A   Overcast
4:13 PM 23.0 °F 18.4 °F 15.4 °F 73% 30.12 in 10.0 mi West 3.5 mph - N/A Snow Light Snow
4:33 PM 23.0 °F - 15.6 °F 73% 30.13 in 10.0 mi Calm Calm - N/A   Overcast
4:53 PM 23.0 °F - 15.6 °F 73% 30.12 in 10.0 mi Calm Calm - N/A Snow Light Snow
5:13 PM 23.0 °F - 16.0 °F 74% 30.13 in 10.0 mi Calm Calm - N/A   Overcast
5:33 PM 22.6 °F - 16.5 °F 77% 30.13 in 10.0 mi Calm Calm - N/A   Overcast
5:53 PM 22.6 °F - 17.1 °F 79% 30.14 in 10.0 mi Calm Calm - N/A   Overcast
6:13 PM 22.5 °F - 16.5 °F 78% 30.14 in 10.0 mi Calm Calm - N/A   Overcast
6:33 PM 22.6 °F - 16.3 °F 77% 30.14 in 10.0 mi Calm Calm - N/A   Overcast
6:53 PM 22.1 °F - 17.1 °F 81% 30.14 in 10.0 mi Calm Calm - N/A   Overcast
7:13 PM 22.6 °F - 16.5 °F 77% 30.15 in 10.0 mi Calm Calm - N/A   Overcast
7:32 PM 22.5 °F - 16.7 °F 79% 30.15 in 10.0 mi Calm Calm - N/A   Overcast
7:53 PM 22.8 °F 18.2 °F 16.9 °F 78% 30.15 in 10.0 mi South 3.5 mph - N/A   Overcast
8:13 PM 22.8 °F - 17.2 °F 79% 30.15 in 10.0 mi Calm Calm - N/A   Overcast
8:32 PM 22.8 °F 18.2 °F 17.4 °F 80% 30.15 in 10.0 mi South 3.5 mph - N/A   Overcast
8:53 PM 23.0 °F - 17.6 °F 80% 30.14 in 10.0 mi Calm Calm - N/A   Overcast
9:13 PM 23.0 °F 17.0 °F 17.6 °F 80% 30.13 in 10.0 mi SSE 4.6 mph - N/A   Overcast
9:32 PM 23.4 °F 18.9 °F 18.1 °F 80% 30.12 in 10.0 mi South 3.5 mph - N/A   Overcast
9:53 PM 23.5 °F 19.1 °F 18.5 °F 81% 30.12 in 10.0 mi South 3.5 mph - N/A   Overcast
10:13 PM 23.7 °F 19.3 °F 18.7 °F 81% 30.12 in 10.0 mi South 3.5 mph - N/A   Overcast
10:32 PM 23.9 °F 16.8 °F 19.0 °F 82% 30.12 in 10.0 mi South 5.8 mph - N/A   Overcast
10:53 PM 24.1 °F 17.0 °F 19.2 °F 82% 30.12 in 10.0 mi South 5.8 mph - N/A   Overcast
11:13 PM 23.9 °F 16.8 °F 19.2 °F 82% 30.12 in 10.0 mi South 5.8 mph - N/A   Overcast
11:32 PM 23.9 °F 16.8 °F 19.2 °F 82% 30.12 in 10.0 mi South 5.8 mph - N/A   Overcast
11:53 PM 23.9 °F 15.8 °F 19.2 °F 82% 30.12 in 10.0 mi South 6.9 mph - N/A   Overcast